Regional Weather Roundup
Issued by NWS

Home | Current Version | Previous Version | Graphics & Text | Print | Product List | Glossary On
Versions: 1 2 3 4 5 6 7 8 9 10 11 12 13 14 15 16 17 18 19 20 21 22 23 24 25 26 27 28 29 30 31 32 33 34 35 36 37 38 39 40 41 42 43 44 45 46 47 48 49 50
000
ASUS43 KLMK 281010
RWRKY
KENTUCKY REGIONAL WEATHER ROUNDUP
NATIONAL WEATHER SERVICE LOUISVILLE KY
600 AM EDT SUN MAY 28 2017

NOTE "FAIR" INDICATES FEW OR NO CLOUDS BELOW 12,000 FEET
WITH NO SIGNIFICANT WEATHER AND/OR OBSTRUCTIONS TO VISIBILITY.

KYZ001>023-026-027-061>063-070>075-281100-
WESTERN AND SOUTH CENTRAL KENTUCKY

CITY           SKY/WX    TMP DP  RH WIND       PRES   REMARKS
PADUCAH        CLOUDY    63  61  93 E3        29.80S
HENDERSON      CLOUDY    65  61  87 S10       29.78R
OWENSBORO      CLOUDY    64  62  93 S9        29.80S
HOPKINSVILLE   CLOUDY    64  63  99 NE6       29.78R
BOWLING GREEN  CLOUDY    65  63  93 SW3       29.81R
GLASGOW        CLOUDY    64  64 100 W5        29.83R
$$

KYZ024-025-028>034-038-045-046-053-281100-
NORTH CENTRAL KENTUCKY

CITY           SKY/WX    TMP DP  RH WIND       PRES   REMARKS
LOUISVILLE/SDF CLOUDY    65  62  90 S8        29.78F
LOUISVILLE/LOU CLOUDY    65  63  93 S5        29.79F
FORT KNOX      CLOUDY    62  62 100 S6        29.79R
$$

KYZ035>037-039>044-047>052-055>060-089>105-281100-
NORTHEAST KENTUCKY

CITY           SKY/WX    TMP DP  RH WIND       PRES   REMARKS
LEXINGTON      CLOUDY    62  58  86 S6        29.81F
COVINGTON      CLOUDY    62  61  96 S7        29.78F
FRANKFORT      CLOUDY    63  60  90 S6        29.79F
$$

KYZ054-064>069-076>088-106>120-281100-
SOUTHEAST KENTUCKY

CITY           SKY/WX    TMP DP  RH WIND       PRES   REMARKS
JACKSON        CLOUDY    62  61  96 CALM      29.87S
LONDON         MOCLDY    61  59  93 SE6       29.85F
SOMERSET       CLOUDY    59  59 100 CALM      29.83F
MIDDLESBORO    CLOUDY    61  61 100 CALM      29.89F
MONTICELLO     CLOUDY    63  60  90 VRB6      29.83F
$$




USA.gov is the U.S. government's official web portal to all federal, state and local government web resources and services.